Location: C.E.K. Mees Observatory
(42.7003°N, 77.4088°W)
Time: 03:40:15
(UTC-05:00)

Envisat - Pass Details

Date: 27 November 2019
Orbit: 764 x 766 km, 98.1° (Epoch: 10 December)

Event Time Altitude Azimuth Distance (km) Brightness Sun altitude
Rises 18:58:10 0° 194° (SSW) 3,216 6.5 -25.2°
Reaches altitude 10° 19:00:45 10° 205° (SSW) 2,295 5.8 -25.6°
Maximum altitude 19:05:06 29° 265° (W) 1,384 4.9 -26.4°
Drops below altitude 10° 19:09:29 10° 325° (NW) 2,308 5.8 -27.2°
Sets 19:12:06 0° 336° (NNW) 3,239 6.5 -27.7°
